| time (UTC) | temp F | wind direction | speed MPH | gust MPH | rain 1hr in | rain 24hr in | rain mn in | humidity % | barometer mb |
| 20260502234529 | 61 | 177 | 3.0 | 5.0 | 0.00 | 0.00 | 0.00 | 36 | 1007.5 |
| 20260502233526 | 61 | 134 | 1.0 | 3.0 | 0.00 | 0.00 | 0.00 | 36 | 1007.7 |
| 20260502232522 | 61 | 150 | 1.0 | 4.0 | 0.00 | 0.00 | 0.00 | 36 | 1007.8 |
| 20260502231519 | 62 | 76 | 1.0 | 3.0 | 0.00 | 0.00 | 0.00 | 36 | 1007.8 |
| 20260502230537 | 62 | 122 | 2.0 | 5.0 | 0.00 | 0.00 | 0.00 | 35 | 1008.1 |
| 20260502225532 | 63 | 269 | 4.0 | 13.0 | 0.00 | 0.00 | 0.00 | 34 | 1008.1 |
| 20260502224529 | 63 | 150 | 2.0 | 6.0 | 0.00 | 0.00 | 0.00 | 33 | 1008.2 |
| 20260502223527 | 63 | 198 | 3.0 | 14.0 | 0.00 | 0.00 | 0.00 | 33 | 1008.3 |
| 20260502222522 | 64 | 206 | 3.0 | 9.0 | 0.00 | 0.00 | 0.00 | 33 | 1008.5 |
| 20260502221620 | 63 | 290 | 2.0 | 4.0 | 0.00 | 0.00 | 0.00 | 33 | 1008.6 |
| 20260502220556 | 63 | 282 | 3.0 | 11.0 | 0.00 | 0.00 | 0.00 | 33 | 1008.8 |
| 20260502215531 | 64 | 292 | 4.0 | 14.0 | 0.00 | 0.00 | 0.00 | 31 | 1008.8 |
| 20260502214528 | 64 | 244 | 3.0 | 7.0 | 0.00 | 0.00 | 0.00 | 32 | 1009.0 |
| 20260502213545 | 62 | 216 | 2.0 | 8.0 | 0.00 | 0.00 | 0.00 | 33 | 1009.1 |
| 20260502212521 | 62 | 187 | 3.0 | 10.0 | 0.00 | 0.00 | 0.00 | 32 | 1009.1 |
| 20260502211518 | 63 | 267 | 3.0 | 10.0 | 0.00 | 0.00 | 0.00 | 31 | 1009.3 |
| 20260502210534 | 62 | 285 | 3.0 | 9.0 | 0.00 | 0.00 | 0.00 | 31 | 1009.4 |
| 20260502205531 | 63 | 178 | 3.0 | 6.0 | 0.00 | 0.00 | 0.00 | 30 | 1009.4 |
| 20260502204528 | 63 | 177 | 4.0 | 10.0 | 0.00 | 0.00 | 0.00 | 30 | 1009.6 |
| 20260502203524 | 64 | 219 | 2.0 | 6.0 | 0.00 | 0.00 | 0.00 | 30 | 1009.7 |
| 20260502202521 | 64 | 214 | 4.0 | 14.0 | 0.00 | 0.00 | 0.00 | 30 | 1009.9 |
| 20260502201518 | 63 | 148 | 3.0 | 8.0 | 0.00 | 0.00 | 0.00 | 30 | 1010.2 |
| 20260502200555 | 63 | 263 | 3.0 | 7.0 | 0.00 | 0.00 | 0.00 | 30 | 1010.3 |
| 20260502195531 | 64 | 248 | 4.0 | 8.0 | 0.00 | 0.00 | 0.00 | 30 | 1010.3 |
| 20260502194527 | 62 | 171 | 2.0 | 8.0 | 0.00 | 0.00 | 0.00 | 31 | 1010.7 |
| 20260502193604 | 63 | 270 | 4.0 | 11.0 | 0.00 | 0.00 | 0.00 | 30 | 1010.8 |
| 20260502192521 | 62 | 258 | 3.0 | 8.0 | 0.00 | 0.00 | 0.00 | 30 | 1010.9 |
| 20260502191518 | 61 | 183 | 4.0 | 8.0 | 0.00 | 0.00 | 0.00 | 30 | 1011.2 |
| 20260502190534 | 61 | 207 | 4.0 | 9.0 | 0.00 | 0.00 | 0.00 | 29 | 1011.4 |
| 20260502185530 | 61 | 292 | 3.0 | 9.0 | 0.00 | 0.00 | 0.00 | 29 | 1011.7 |
| 20260502184547 | 60 | 355 | 3.0 | 6.0 | 0.00 | 0.00 | 0.00 | 28 | 1011.7 |
| 20260502183524 | 60 | 300 | 4.0 | 9.0 | 0.00 | 0.00 | 0.00 | 29 | 1011.9 |
| 20260502182521 | 60 | 176 | 3.0 | 6.0 | 0.00 | 0.00 | 0.00 | 28 | 1012.2 |
| 20260502181537 | 60 | 163 | 3.0 | 10.0 | 0.00 | 0.00 | 0.00 | 29 | 1012.4 |
| 20260502180534 | 60 | 269 | 3.0 | 9.0 | 0.00 | 0.00 | 0.00 | 29 | 1012.6 |
| 20260502163524 | 57 | 196 | 4.0 | 10.0 | 0.00 | 0.00 | 0.00 | 31 | 1014.1 |
| 20260502162520 | 56 | 305 | 3.0 | 12.0 | 0.00 | 0.00 | 0.00 | 30 | 1014.1 |
| 20260502161517 | 56 | 159 | 3.0 | 7.0 | 0.00 | 0.00 | 0.00 | 31 | 1014.2 |
| 20260502160535 | 55 | 214 | 3.0 | 11.0 | 0.00 | 0.00 | 0.00 | 31 | 1014.5 |
| 20260502151517 | 54 | 264 | 4.0 | 9.0 | 0.00 | 0.00 | 0.00 | 34 | 1015.2 |
| 20260502150555 | 53 | 310 | 3.0 | 6.0 | 0.00 | 0.00 | 0.00 | 33 | 1015.4 |
| 20260502130535 | 38 | 58 | 1.0 | 5.0 | 0.00 | 0.00 | 0.00 | 72 | 1016.1 |
| 20260502123526 | 31 | 97 | 0.0 | 3.0 | 0.00 | 0.00 | 0.00 | 90 | 1016.1 |
| 20260502122522 | 29 | 19 | 3.0 | 6.0 | 0.00 | 0.00 | 0.00 | 91 | 1016.2 |
| 20260502121519 | 27 | 199 | 0.0 | 2.0 | 0.00 | 0.00 | 0.00 | 92 | 1016.1 |
| 20260502120535 | 26 | 197 | 1.0 | 4.0 | 0.00 | 0.00 | 0.00 | 93 | 1016.1 |
| 20260502115531 | 25 | 58 | 1.0 | 3.0 | 0.00 | 0.00 | 0.00 | 93 | 1016.2 |
| 20260502114548 | 24 | 29 | 2.0 | 3.0 | 0.00 | 0.00 | 0.00 | 94 | 1016.2 |
| 20260502113525 | 24 | 167 | 0.0 | 3.0 | 0.00 | 0.00 | 0.00 | 94 | 1016.2 |
| 20260502112521 | 24 | 207 | 2.0 | 3.0 | 0.00 | 0.00 | 0.00 | 94 | 1016.1 |
| 20260502111539 | 24 | 261 | 1.0 | 3.0 | 0.00 | 0.00 | 0.00 | 94 | 1016.1 |
| 20260502110535 | 24 | 192 | 1.0 | 3.0 | 0.00 | 0.00 | 0.00 | 94 | 1016.1 |
| 20260502105531 | 24 | 356 | 3.0 | 5.0 | 0.00 | 0.00 | 0.00 | 93 | 1016.2 |
| 20260502104527 | 24 | 211 | 1.0 | 4.0 | 0.00 | 0.00 | 0.00 | 93 | 1016.2 |
| 20260502103525 | 24 | 321 | 1.0 | 4.0 | 0.00 | 0.00 | 0.00 | 93 | 1016.2 |
| 20260502102541 | 24 | 178 | 1.0 | 3.0 | 0.00 | 0.00 | 0.00 | 93 | 1016.2 |
| 20260502100615 | 24 | 268 | 1.0 | 3.0 | 0.00 | 0.00 | 0.00 | 93 | 1016.4 |
| 20260502091517 | 25 | 222 | 1.0 | 4.0 | 0.00 | 0.00 | 0.00 | 91 | 1016.3 |
| 20260502090535 | 25 | 274 | 1.0 | 4.0 | 0.00 | 0.00 | 0.00 | 90 | 1016.3 |
| 20260502071031 | 26 | 0.0 | 0.0 | 0.00 | 0.00 | 0.00 | 87 | 1016.9 | |
| 20260502070027 | 26 | 0.0 | 1.0 | 0.00 | 0.00 | 0.00 | 89 | 1016.9 | |
| 20260502065025 | 26 | 0.0 | 1.0 | 0.00 | 0.00 | 0.00 | 87 | 1017.0 | |
| 20260502064021 | 27 | 0.0 | 0.0 | 0.00 | 0.00 | 0.00 | 87 | 1017.1 | |
| 20260502063017 | 27 | 0.0 | 1.0 | 0.00 | 0.00 | 0.00 | 86 | 1017.1 | |
| 20260502062034 | 27 | 0.0 | 0.0 | 0.00 | 0.00 | 0.00 | 85 | 1017.1 | |
| 20260502061031 | 27 | 0.0 | 0.0 | 0.00 | 0.00 | 0.00 | 86 | 1017.1 | |
| 20260502060027 | 27 | 0.0 | 0.0 | 0.00 | 0.00 | 0.00 | 86 | 1017.0 | |
| 20260502055104 | 28 | 0.0 | 0.0 | 0.00 | 0.00 | 0.00 | 85 | 1017.1 | |
| 20260502054021 | 27 | 0.0 | 0.0 | 0.00 | 0.00 | 0.00 | 84 | 1017.0 | |
| 20260502053017 | 27 | 0.0 | 1.0 | 0.00 | 0.00 | 0.00 | 85 | 1017.2 | |
| 20260502052035 | 27 | 181 | 0.0 | 1.0 | 0.00 | 0.00 | 0.00 | 84 | 1017.2 |
| 20260502051031 | 28 | 0.0 | 1.0 | 0.00 | 0.00 | 0.00 | 84 | 1017.1 | |
| 20260502050029 | 28 | 0.0 | 1.0 | 0.00 | 0.00 | 0.00 | 83 | 1017.2 | |
| 20260502045024 | 28 | 0.0 | 0.0 | 0.00 | 0.00 | 0.00 | 83 | 1017.1 | |
| 20260502044021 | 28 | 0.0 | 0.0 | 0.00 | 0.00 | 0.00 | 83 | 1017.3 | |
| 20260502043038 | 28 | 135 | 0.0 | 1.0 | 0.00 | 0.00 | 0.00 | 82 | 1017.2 |
| 20260502042035 | 28 | 0.0 | 0.0 | 0.00 | 0.00 | 0.00 | 82 | 1017.1 | |
| 20260502041031 | 29 | 0.0 | 1.0 | 0.00 | 0.00 | 0.00 | 80 | 1017.2 | |
| 20260502040027 | 29 | 212 | 0.0 | 1.0 | 0.00 | 0.00 | 0.00 | 81 | 1017.1 |
| 20260502035045 | 29 | 134 | 0.0 | 1.0 | 0.00 | 0.00 | 0.00 | 79 | 1017.2 |
| 20260502034041 | 29 | 157 | 0.0 | 1.0 | 0.00 | 0.00 | 0.00 | 78 | 1017.2 |
| 20260502033017 | 30 | 140 | 0.0 | 2.0 | 0.00 | 0.00 | 0.00 | 80 | 1017.3 |
| 20260502032035 | 30 | 141 | 0.0 | 2.0 | 0.00 | 0.00 | 0.00 | 77 | 1017.3 |
| 20260502031031 | 31 | 150 | 0.0 | 2.0 | 0.00 | 0.00 | 0.00 | 77 | 1017.2 |
| 20260502030027 | 32 | 130 | 0.0 | 2.0 | 0.00 | 0.00 | 0.00 | 74 | 1017.2 |
| 20260502025023 | 32 | 128 | 1.0 | 2.0 | 0.00 | 0.00 | 0.00 | 71 | 1017.3 |
| 20260502024020 | 33 | 153 | 1.0 | 2.0 | 0.00 | 0.00 | 0.00 | 72 | 1017.2 |
| 20260502023036 | 34 | 0.0 | 1.0 | 0.00 | 0.00 | 0.00 | 71 | 1017.2 | |
| 20260502022033 | 34 | 0.0 | 0.0 | 0.00 | 0.00 | 0.00 | 67 | 1017.1 | |
| 20260502021030 | 35 | 142 | 0.0 | 1.0 | 0.00 | 0.00 | 0.00 | 64 | 1017.1 |
| 20260502020026 | 36 | 131 | 1.0 | 2.0 | 0.00 | 0.00 | 0.00 | 57 | 1017.0 |
| 20260502015023 | 37 | 144 | 1.0 | 2.0 | 0.00 | 0.00 | 0.00 | 56 | 1016.9 |
| 20260502014020 | 38 | 162 | 0.0 | 1.0 | 0.00 | 0.00 | 0.00 | 56 | 1016.8 |
| 20260502013056 | 39 | 116 | 2.0 | 2.0 | 0.00 | 0.00 | 0.00 | 52 | 1016.8 |
| 20260502012033 | 40 | 147 | 2.0 | 3.0 | 0.00 | 0.00 | 0.00 | 51 | 1016.7 |
| 20260502011030 | 41 | 129 | 2.0 | 4.0 | 0.00 | 0.00 | 0.00 | 51 | 1016.7 |
| 20260502010026 | 41 | 136 | 2.0 | 4.0 | 0.00 | 0.00 | 0.00 | 50 | 1016.7 |
| 20260502005023 | 42 | 106 | 2.0 | 4.0 | 0.00 | 0.00 | 0.00 | 49 | 1016.5 |
| 20260502004040 | 43 | 116 | 2.0 | 4.0 | 0.00 | 0.00 | 0.00 | 48 | 1016.6 |
| 20260502003056 | 43 | 126 | 2.0 | 6.0 | 0.00 | 0.00 | 0.00 | 48 | 1016.5 |
| 20260502002033 | 43 | 127 | 2.0 | 5.0 | 0.00 | 0.00 | 0.00 | 45 | 1016.4 |
| 20260502001030 | 44 | 144 | 3.0 | 5.0 | 0.00 | 0.00 | 0.00 | 43 | 1016.5 |
| 20260502000026 | 45 | 112 | 2.0 | 4.0 | 0.00 | 0.00 | 0.00 | 43 | 1016.5 |